• In Belarus
  • List of Countries
  • For 7 days
  • Water Temperature
  • Satellite Maps
  • Weather Map
  • Weather Widgets
  • user-avatar
    Login

    Hourly Weather Amriswil

    Today, 24 October, Tuesday

    Time Temperature Precipitation Wind Pressure Humidity
    00:00 +6°C° 0.1 mm 2 mps 724 mmHg 93%
    01:00 +7°C° 0 mm 2 mps 724 mmHg 94%
    02:00 +7°C° 0 mm 2 mps 724 mmHg 94%
    03:00 +7°C° 0 mm 2 mps 724 mmHg 93%
    04:00 +7°C° 0 mm 2 mps 724 mmHg 93%
    05:00 +6°C° 0 mm 2 mps 724 mmHg 93%
    06:00 +6°C° 0 mm 2 mps 724 mmHg 92%
    07:00 +7°C° 0 mm 1 mps 724 mmHg 92%
    08:00 +9°C° 0 mm 1 mps 724 mmHg 87%
    09:00 +10°C° 0 mm 1 mps 724 mmHg 82%
    10:00 +12°C° 0 mm 1 mps 724 mmHg 77%
    11:00 +13°C° 0 mm 1 mps 724 mmHg 72%
    12:00 +15°C° 0 mm 1 mps 724 mmHg 67%
    13:00 +16°C° 0 mm 1 mps 724 mmHg 62%
    14:00 +16°C° 0 mm 1 mps 724 mmHg 66%
    15:00 +15°C° 0 mm 1 mps 723 mmHg 69%
    16:00 +15°C° 0 mm 1 mps 723 mmHg 73%
    17:00 +13°C° 0 mm 1 mps 723 mmHg 78%
    18:00 +12°C° 0 mm 1 mps 724 mmHg 83%
    19:00 +10°C° 0 mm 1 mps 724 mmHg 88%
    20:00 +10°C° 0 mm 1 mps 724 mmHg 87%
    21:00 +9°C° 0 mm 1 mps 724 mmHg 86%
    22:00 +9°C° 0 mm 1 mps 724 mmHg 86%
    23:00 +9°C° 0 mm 1 mps 724 mmHg 85%

    Tomorrow, 25 October, Wednesday

    Time Temperature Precipitation Wind Pressure Humidity
    00:00 +9°C° 0 mm 1 mps 724 mmHg 84%
    01:00 +9°C° 0 mm 1 mps 724 mmHg 83%
    02:00 +9°C° 0 mm 1 mps 724 mmHg 82%
    03:00 +9°C° 0 mm 1 mps 724 mmHg 82%
    04:00 +9°C° 0 mm 1 mps 723 mmHg 81%
    05:00 +9°C° 0 mm 1 mps 723 mmHg 81%
    06:00 +9°C° 0 mm 1 mps 723 mmHg 80%
    07:00 +9°C° 0 mm 1 mps 723 mmHg 80%
    08:00 +11°C° 0 mm 1 mps 724 mmHg 74%
    09:00 +14°C° 0 mm 1 mps 724 mmHg 69%
    10:00 +16°C° 0 mm 1 mps 724 mmHg 63%
    11:00 +18°C° 0 mm 1 mps 724 mmHg 61%
    12:00 +19°C° 0 mm 1 mps 724 mmHg 59%
    13:00 +21°C° 0 mm 1 mps 724 mmHg 56%
    14:00 +20°C° 0 mm 1 mps 724 mmHg 62%
    15:00 +17°C° 0 mm 0 mps 724 mmHg 67%
    16:00 +17°C° 0 mm 0 mps 724 mmHg 72%
    17:00 +15°C° 0 mm 0 mps 724 mmHg 75%
    18:00 +14°C° 0 mm 1 mps 724 mmHg 79%
    19:00 +13°C° 0 mm 1 mps 724 mmHg 82%
    20:00 +12°C° 0 mm 1 mps 725 mmHg 81%
    21:00 +12°C° 0 mm 1 mps 725 mmHg 80%
    22:00 +12°C° 0 mm 1 mps 725 mmHg 78%
    23:00 +12°C° 0 mm 1 mps 725 mmHg 77%

    Day after tomorrow, 26 October, Thursday

    Time Temperature Precipitation Wind Pressure Humidity
    00:00 +12°C° 0 mm 1 mps 725 mmHg 76%
    01:00 +12°C° 0 mm 1 mps 725 mmHg 74%
    02:00 +12°C° 0 mm 1 mps 725 mmHg 73%
    03:00 +12°C° 0 mm 1 mps 725 mmHg 73%
    04:00 +12°C° 0 mm 1 mps 725 mmHg 72%
    05:00 +12°C° 0 mm 1 mps 725 mmHg 71%
    06:00 +11°C° 0 mm 1 mps 725 mmHg 70%
    07:00 +11°C° 0 mm 1 mps 725 mmHg 70%
    08:00 +13°C° 0 mm 1 mps 725 mmHg 66%
    09:00 +16°C° 0 mm 1 mps 725 mmHg 61%
    10:00 +19°C° 0 mm 1 mps 725 mmHg 57%
    11:00 +20°C° 0 mm 1 mps 725 mmHg 54%
    12:00 +21°C° 0 mm 1 mps 725 mmHg 52%
    13:00 +22°C° 0 mm 1 mps 725 mmHg 49%
    14:00 +21°C° 0 mm 1 mps 725 mmHg 55%
    15:00 +20°C° 0 mm 1 mps 725 mmHg 62%
    16:00 +20°C° 0 mm 1 mps 725 mmHg 68%
    17:00 +18°C° 0 mm 1 mps 725 mmHg 71%
    18:00 +15°C° 0 mm 1 mps 725 mmHg 74%
    19:00 +13°C° 0 mm 1 mps 725 mmHg 77%
    20:00 +13°C° 0 mm 1 mps 725 mmHg 76%
    21:00 +13°C° 0 mm 1 mps 725 mmHg 75%
    22:00 +12°C° 0 mm 2 mps 725 mmHg 73%
    23:00 +12°C° 0 mm 2 mps 724 mmHg 72%

    27 October, Friday

    Time Temperature Precipitation Wind Pressure Humidity
    00:00 +12°C° 0 mm 2 mps 724 mmHg 71%
    01:00 +12°C° 0 mm 2 mps 724 mmHg 70%
    02:00 +12°C° 0 mm 2 mps 724 mmHg 70%
    03:00 +12°C° 0 mm 2 mps 723 mmHg 70%
    04:00 +10°C° 0 mm 2 mps 723 mmHg 69%
    05:00 +12°C° 0 mm 2 mps 723 mmHg 69%
    06:00 +12°C° 0 mm 2 mps 723 mmHg 68%
    07:00 +12°C° 0 mm 2 mps 723 mmHg 68%
    08:00 +13°C° 0 mm 2 mps 723 mmHg 66%
    09:00 +14°C° 0 mm 3 mps 723 mmHg 64%
    10:00 +17°C° 0 mm 3 mps 722 mmHg 63%
    11:00 +17°C° 0 mm 4 mps 722 mmHg 62%
    12:00 +18°C° 0 mm 4 mps 722 mmHg 62%
    13:00 +17°C° 0 mm 5 mps 722 mmHg 62%
    14:00 +18°C° 0.2 mm 4 mps 722 mmHg 68%
    15:00 +17°C° 0.2 mm 4 mps 721 mmHg 74%
    16:00 +15°C° 0.2 mm 4 mps 721 mmHg 80%
    17:00 +14°C° 0.7 mm 3 mps 721 mmHg 84%
    18:00 +13°C° 0.7 mm 3 mps 722 mmHg 88%
    19:00 +12°C° 0.7 mm 3 mps 722 mmHg 92%
    20:00 +12°C° 0.8 mm 3 mps 722 mmHg 93%
    21:00 +11°C° 0.8 mm 3 mps 722 mmHg 94%
    22:00 +11°C° 0.8 mm 3 mps 722 mmHg 94%
    23:00 +10°C° 0.4 mm 2 mps 722 mmHg 95%

    28 October, Saturday

    Time Temperature Precipitation Wind Pressure Humidity
    00:00 +9°C° 0.4 mm 2 mps 722 mmHg 95%
    01:00 +9°C° 0.4 mm 2 mps 722 mmHg 96%
    02:00 +8°C° 0.1 mm 2 mps 722 mmHg 96%
    03:00 +8°C° 0.1 mm 1 mps 722 mmHg 96%
    04:00 +8°C° 0.1 mm 1 mps 722 mmHg 97%
    05:00 +7°C° 0 mm 1 mps 722 mmHg 97%
    06:00 +7°C° 0 mm 1 mps 721 mmHg 97%
    07:00 +6°C° 0 mm 0 mps 721 mmHg 97%
    08:00 +8°C° 0 mm 1 mps 721 mmHg 92%
    09:00 +9°C° 0 mm 1 mps 721 mmHg 87%
    10:00 +11°C° 0 mm 1 mps 721 mmHg 83%
    11:00 +11°C° 0 mm 1 mps 720 mmHg 78%
    12:00 +12°C° 0 mm 2 mps 719 mmHg 73%
    13:00 +13°C° 0 mm 2 mps 718 mmHg 67%
    14:00 +12°C° 0 mm 2 mps 718 mmHg 68%
    15:00 +12°C° 0 mm 2 mps 717 mmHg 69%
    16:00 +12°C° 0 mm 2 mps 717 mmHg 70%
    17:00 +9°C° 0 mm 2 mps 717 mmHg 75%
    18:00 +8°C° 0 mm 2 mps 717 mmHg 80%
    19:00 +7°C° 0 mm 1 mps 717 mmHg 86%
    20:00 +7°C° 0 mm 1 mps 716 mmHg 85%
    21:00 +7°C° 0 mm 1 mps 716 mmHg 84%
    22:00 +7°C° 0 mm 1 mps 716 mmHg 83%
    23:00 +7°C° 0 mm 1 mps 716 mmHg 83%

    29 October, Sunday

    Time Temperature Precipitation Wind Pressure Humidity
    00:00 +7°C° 0 mm 1 mps 715 mmHg 84%
    01:00 +7°C° 0 mm 1 mps 715 mmHg 84%
    02:00 +7°C° 0.3 mm 1 mps 714 mmHg 86%
    03:00 +6°C° 0.3 mm 2 mps 714 mmHg 88%
    04:00 +6°C° 0.3 mm 2 mps 713 mmHg 89%
    05:00 +6°C° 0.6 mm 2 mps 713 mmHg 91%
    06:00 +7°C° 0.6 mm 3 mps 713 mmHg 92%
    07:00 +6°C° 0.6 mm 4 mps 713 mmHg 93%
    08:00 +6°C° 0.8 mm 4 mps 714 mmHg 91%
    09:00 +6°C° 0.8 mm 4 mps 715 mmHg 89%
    10:00 +6°C° 0.8 mm 5 mps 715 mmHg 86%
    11:00 +6°C° 0.5 mm 5 mps 715 mmHg 85%
    12:00 +6°C° 0.5 mm 5 mps 716 mmHg 83%
    13:00 +6°C° 0.5 mm 5 mps 716 mmHg 81%
    14:00 +6°C° 0.6 mm 4 mps 716 mmHg 83%
    15:00 +5°C° 0.6 mm 4 mps 717 mmHg 84%
    16:00 +5°C° 0.6 mm 4 mps 717 mmHg 86%
    17:00 +4°C° 0.4 mm 4 mps 718 mmHg 88%
    18:00 +4°C° 0.4 mm 3 mps 719 mmHg 90%
    19:00 +3°C° 0.4 mm 3 mps 719 mmHg 92%
    20:00 +3°C° 0.2 mm 3 mps 720 mmHg 92%
    21:00 +4°C° 0.2 mm 2 mps 720 mmHg 93%
    22:00 +4°C° 0.2 mm 2 mps 721 mmHg 94%
    23:00 +4°C° 0.1 mm 2 mps 721 mmHg 94%

    30 October, Monday

    Time Temperature Precipitation Wind Pressure Humidity
    00:00 +3°C° 0.1 mm 2 mps 721 mmHg 95%
    01:00 +3°C° 0.1 mm 2 mps 721 mmHg 95%
    02:00 +3°C° 0.1 mm 2 mps 721 mmHg 95%
    03:00 +2°C° 0.1 mm 2 mps 721 mmHg 95%
    04:00 +3°C° 0.1 mm 1 mps 721 mmHg 95%
    05:00 +3°C° 0 mm 1 mps 721 mmHg 95%
    06:00 +2°C° 0 mm 1 mps 721 mmHg 95%
    07:00 +2°C° 0 mm 1 mps 722 mmHg 94%
    08:00 +4°C° 0 mm 1 mps 722 mmHg 90%
    09:00 +5°C° 0 mm 1 mps 722 mmHg 86%
    10:00 +7°C° 0 mm 1 mps 722 mmHg 82%
    11:00 +7°C° 0 mm 1 mps 722 mmHg 80%
    12:00 +8°C° 0 mm 1 mps 721 mmHg 77%
    13:00 +9°C° 0 mm 1 mps 721 mmHg 75%
    14:00 +9°C° 0 mm 1 mps 721 mmHg 76%
    15:00 +9°C° 0 mm 1 mps 721 mmHg 78%
    16:00 +9°C° 0 mm 1 mps 722 mmHg 79%
    17:00 +7°C° 0 mm 1 mps 722 mmHg 83%
    18:00 +6°C° 0 mm 1 mps 722 mmHg 86%
    19:00 +4°C° 0 mm 1 mps 723 mmHg 89%
    20:00 +4°C° 0 mm 1 mps 723 mmHg 89%
    21:00 +3°C° 0 mm 1 mps 723 mmHg 89%
    22:00 +3°C° 0 mm 1 mps 723 mmHg 89%
    23:00 +3°C° 0 mm 1 mps 723 mmHg 88%
    Show more